Regional Weather Roundup
Issued by NWS Cleveland, OH

Home | Current Version | Previous Version | Text Only | Print | Product List | Glossary Off
Versions: 1 2 3 4 5 6 7 8 9 10 11 12 13 14 15 16 17 18 19 20 21 22 23 24 25 26 27 28 29 30 31 32 33 34 35 36 37 38 39 40 41 42 43 44 45 46 47 48 49 50

690
ASUS41 KCLE 280512
RWRCLE
OHIO REGIONAL WEATHER ROUNDUP
NATIONAL WEATHER SERVICE WILMINGTON, OH
100 AM EDT FRI JUL 28 2017

NOTE: "FAIR" INDICATES FEW OR NO CLOUDS BELOW 12,000 FEET WITH NO
SIGNIFICANT WEATHER AND/OR OBSTRUCTIONS TO VISIBILITY.

OHZ001>008-015>018-024>027-034-035-043-044-280600-
   NORTHWEST OHIO

CITY           SKY/WX    TMP DP  RH WIND       PRES   REMARKS
DEFIANCE       FAIR      70  64  81 NE5       29.91R
FINDLAY        FAIR      72  64  76 NE7       29.89R
TOLEDO EXPRESS FAIR      70  62  76 NE13      29.91S
TOLEDO EXEC    FAIR      72  63  73 NE7       29.92S
LIMA           FAIR      70  70 100 NE3       29.89F
$$

OHZ009>014-019>023-028>033-038-089-280600-
   NORTHEAST OHIO

CITY           SKY/WX    TMP DP  RH WIND       PRES   REMARKS
CLE-HOPKINS    MOCLDY    74  68  81 N6        29.91S
CLE-LAKEFRONT  FAIR      74  66  76 N10       29.88F
CUY CO. ARPT   NOT AVBL
LORAIN-ELYRIA  FAIR      65  61  87 CALM      29.91S
ASHTABULA      FAIR      63  63 100 CALM      29.91F FOG
AKRON-CANTON   CLOUDY    70  67  90 NW3       29.90F FOG
WOOSTER        FOG       67  67 100 CALM      29.91S VSB 1
MANSFIELD      FOG       69  69 100 N6        29.90F VSB 3/4
YOUNGSTOWN     MOCLDY    68  64  87 CALM      29.90F
$$

OHZ042-051>053-060>062-070>072-077>081-280600-
  SOUTHWEST OHIO

CITY           SKY/WX    TMP DP  RH WIND       PRES   REMARKS
CINC-COVINGTON CLOUDY    74  74 100 NW3       29.87S
CINC-LUNKEN    CLOUDY    73  73 100 CALM      29.87S
HAMILTON       MOCLDY    74  74 100 CALM      29.87S
DAYTON         MOCLDY    71  70  96 NE6       29.89S
WRIGHT-PAT AFB PTCLDY    71  71 100 NE3       29.88R
DAYTON GENERAL CLOUDY    74  72  93 N3        29.86F
WILMINGTON     CLOUDY    71  71 100 NE5       29.87F
$$

OHZ036-037-039>041-045>050-054>059-063>069-073>076-082>088-280600-
  CENTRAL AND SOUTHEAST OHIO

CITY           SKY/WX    TMP DP  RH WIND       PRES   REMARKS
COLUMBUS       CLOUDY    70  70 100 NE5       29.86F
OSU AIRPORT    MOCLDY    69  69 100 CALM      29.87F FOG
BOLTON FIELD   FAIR      69  69 100 CALM      29.87F FOG
RICKENBACK AFB CLOUDY    70  70 100 N5        29.86S
NEWARK         CLOUDY    71  69  93 N3        29.87F
MARION         CLOUDY    68  66  93 CALM      29.90S FOG
LANCASTER      CLOUDY    71  70  96 N6        29.86F FOG
ZANESVILLE     CLOUDY    71  69  93 NE3       29.87F
NEW PHILLY     FAIR      70  69  97 CALM      29.89F FOG
$$




USA.gov is the U.S. government's official web portal to all federal, state and local government web resources and services.